Location: Ahstedt
(52.2048°N, 10.1060°E)
Time: 20:07:17
(UTC+00:00)

Meteor 2-5 Rocket - Pass Details

Date: 18 January 2026
Orbit: 833 x 910 km, 81.2° (Epoch: 16 February)

Event Time Altitude Azimuth Distance (km) Brightness Sun altitude
Rises 05:48:17 0° 346° (NNW) 3,502 6.6 -13.4°
Reaches altitude 10° 05:50:44 10° 345° (NNW) 2,569 5.9 -13.0°
Maximum altitude 05:56:36 79° 260° (W) 923 3.8 -12.2°
Drops below altitude 10° 06:02:30 10° 175° (S) 2,586 6.6 -11.3°
Sets 06:04:58 0° 174° (S) 3,527 7.3 -10.9°
